Find Starlink 37301

NORAD ID: 68954 Int'l Des: 2026-099 Owner: SPXS Country: US Constellation: starlink operational
LEOCIRCULAR

实时位置

正在加载3D地球...

关于 Starlink 37301

正在加载描述...

即将过境

Passes for default location (London). Set your location on the main map for personalized predictions.

高度历史

Loading altitude history...

两行轨道根数

1 68954C 26099D 26125.79631944 -.01522200 00000+0 -26600-2 0 1257
2 68954 53.1617 7.4644 0000239 104.1412 253.3209 16.02173814 17
Epoch: May 5, 2026 • Age: 32 hours

当前状态

高度 291.5 km
速度 7.73 km/s
星下点 -52.54°S, 86.06°W
发射日期 May 1, 2026
运行时间 4 days
类型 internet

技术详情

分类 Payload
质量 575.00 kg
干质量 530.00 kg
总质量 575.00 kg
长度 0.30 m
直径 4.10 m
跨度 29.00 m
形状 Box + pan
制造商 SPXS
平台类型 Starlink V2MO
阶段状态 In Orbit
所有者/国家 SPXS/US

Most Searched